Flag for Finland Weather past 2 weeks in Lappeenranta, Finland

Now
54 °F

Passing clouds.


Feels Like: 52 °F
Forecast: 51 / 61 °F
Wind: 6 mph from North

Location: Lappeenranta

Current Time: Sep 2, 2015 at 6:12:23 AM

Latest Report: Sep 2, 2015 at 5:20 AM


Visibility: N/A

Pressure: 29.92 "Hg

Humidity: 94%

Dew point: 52 °F

Location of LappeenrantaLocation

Historic Weather in Lappeenranta — Graph

°F

Lappeenranta temperature yesterday

Maximum temperature yesterday: 70 °F (at 3:20 PM)
Minimum temperature yesterday: 48 °F (at 12:50 AM)
Average temperature yesterday: 58 °F

Past Weeks' High & Low Weather Summary

 TemperatureHumidityPressure
High79 °F (Aug 21, 3:50 PM)100% (Aug 18, 4:20 AM)30.42 "Hg (Aug 18, 4:20 AM)
Low43 °F (Aug 19, 5:20 AM)34% (Aug 20, 3:20 PM)29.59 "Hg (Aug 28, 4:50 PM)
Average62 °F72%30.11 "Hg
* Reported Aug 18 4:20 AM — Sep 2 4:50 AM, Lappeenranta, Weather by CustomWeather, © 2015

Note: Actual official high and low records may vary slightly from our data, if they occured in-between our weather recording intervals... More about our weather records

Advertising

Lappeenranta weather history for previous 24 hours

 ConditionsComfort  
Time TempWeatherWind HumidityBarometerVisibility
4:50 AM
Wed, Sep 2
54 °FClear.5 mph94%29.92 "Hg10 mi
4:20 AM54 °FClear.7 mph94%29.89 "Hg10 mi
3:50 AM52 °FClear.5 mph100%29.89 "Hg10 mi
3:20 AM54 °FClear.5 mph94%29.89 "Hg10 mi
2:50 AM54 °FClear.5 mph94%29.89 "Hg10 mi
2:20 AM55 °FClear.5 mph94%29.89 "Hg10 mi
1:50 AM50 °FClear.2 mph94%29.89 "Hg10 mi
12:20 AM52 °FClear.No wind94%29.89 "Hg10 mi
11:50 PM
Tue, Sep 1
52 °FClear.1 mph94%29.92 "Hg10 mi
11:20 PM54 °FClear.2 mph94%29.92 "Hg10 mi
10:50 PM57 °FClear.5 mph82%29.92 "Hg10 mi
10:20 PM57 °FClear.3 mph82%29.92 "Hg10 mi
9:50 PM54 °FClear.2 mph88%29.92 "Hg10 mi
9:20 PM54 °FClear.No wind88%29.92 "Hg10 mi
8:50 PM55 °FSunny.No wind88%29.92 "Hg10 mi
8:20 PM57 °FSunny.No wind82%29.92 "Hg10 mi
7:50 PM59 °FSunny.1 mph77%29.89 "Hg10 mi
7:20 PM61 °FSunny.2 mph77%29.92 "Hg10 mi
6:50 PM63 °FSunny.3 mph73%29.92 "Hg10 mi
6:20 PM64 °FSunny.5 mph64%29.92 "Hg10 mi
5:50 PM64 °FPassing clouds.5 mph64%29.92 "HgN/A
5:20 PM66 °FSunny.2 mph52%29.92 "Hg10 mi
4:50 PM66 °FSunny.5 mph52%29.92 "Hg10 mi
4:20 PM66 °FSunny.6 mph56%29.92 "Hg10 mi
3:50 PM68 °FSunny.2 mph46%29.92 "Hg10 mi
3:20 PM70 °FSunny.2 mph46%29.92 "Hg10 mi
2:50 PM68 °FPassing clouds.5 mph46%29.92 "HgN/A
2:20 PM68 °FSunny.2 mph46%29.92 "Hg10 mi
1:50 PM66 °FSunny.3 mph49%29.92 "Hg10 mi
1:20 PM66 °FSunny.3 mph52%29.95 "Hg10 mi
12:50 PM66 °FSunny.3 mph49%29.95 "Hg10 mi
12:20 PM64 °FSunny.3 mph60%29.95 "Hg10 mi
11:50 AM64 °FPartly sunny.5 mph60%29.95 "HgN/A
11:20 AM66 °FSunny.2 mph60%29.95 "Hg10 mi
10:50 AM64 °FSunny.1 mph60%29.95 "Hg10 mi
10:20 AM63 °FSunny.1 mph68%29.98 "Hg10 mi
9:50 AM63 °FSunny.2 mph68%29.98 "Hg10 mi
9:20 AM61 °FSunny.No wind72%29.98 "Hg10 mi
8:50 AM61 °FSunny.1 mph72%29.98 "Hg10 mi
8:20 AM59 °FSunny.1 mph77%29.98 "Hg10 mi
7:50 AM55 °FSunny.No wind88%29.98 "Hg10 mi
6:20 AM48 °FClear.No wind100%29.98 "Hg10 mi
Weather by CustomWeather, © 2015

See weather overviewHow to use our weather pages